Location: Sun City Center
(27.6996°N, 82.3528°W)
Time: 00:17:26
(UTC-04:00)

Hubble Space Telescope - Visible Passes

Search period start: 17 July 2018 00:00
Search period end: 27 July 2018 00:00
Orbit: 537 x 541 km, 28.5° (Epoch: 16 July)

Date Brightness Start Highest point End Pass type
(mag) Time Alt. Az. Time Alt. Az. Time Alt. Az.
17 Jul 3.0 04:06:19 20° E 04:06:19 20° E 04:07:43 10° E visible
17 Jul 0.8 05:41:40 16° W 05:44:51 80° N 05:49:00 10° E visible
18 Jul 3.3 03:56:29 16° E 03:56:29 16° E 03:57:24 10° E visible
18 Jul 0.8 05:31:49 20° W 05:34:33 79° N 05:38:40 10° E visible
19 Jul 3.6 03:46:41 13° E 03:46:41 13° E 03:47:06 10° E visible
19 Jul 0.8 05:22:02 27° W 05:24:13 79° N 05:28:21 10° E visible
20 Jul 0.7 05:12:20 37° W 05:13:54 82° N 05:18:02 10° E visible
21 Jul 0.7 05:02:44 55° W 05:03:35 87° NNE 05:07:43 10° E visible
22 Jul 0.6 04:53:17 85° S 04:53:17 85° S 04:57:23 10° E visible
23 Jul 1.4 04:44:00 47° ESE 04:44:00 47° ESE 04:47:01 10° ESE visible
23 Jul 1.8 06:20:21 10° W 06:23:54 28° SSW 06:27:26 10° SE visible
24 Jul 2.5 04:34:54 24° ESE 04:34:54 24° ESE 04:36:39 10° ESE visible
24 Jul 2.1 06:10:18 10° WSW 06:13:29 22° SSW 06:16:42 10° SSE visible
25 Jul 3.5 04:26:00 11° ESE 04:26:00 11° ESE 04:26:13 10° ESE visible
25 Jul 2.4 06:01:25 14° SW 06:03:03 17° SSW 06:05:49 10° SSE visible
25 Jul 2.9 21:25:36 10° S 21:26:32 12° SSE 21:26:32 12° SSE visible
26 Jul 2.7 05:52:42 13° SSW 05:52:42 13° SSW 05:54:38 10° S visible
26 Jul 2.4 21:14:21 10° SSW 21:17:02 17° SSE 21:17:46 16° SE visible
